Flag for Germany Weather past 2 weeks in Bad Oldesloe, Schleswig-Holstein, Germany

Now
48 °F

Fog.


Feels Like: 46 °F
Forecast: 44 / 68 °F
Wind: 6 mph from Northeast

Location: Luebeck-Blankensee


UV Index: 0 (Low)

Visibility: 3 mi


Pressure: 29.80 "Hg

Humidity: 94%

Dew point: 46 °F

Location of Bad OldesloeLocation

Historic Weather in Bad Oldesloe

°F

Bad Oldesloe temperature yesterday

Maximum temperature yesterday: 64 °F (at 1:20 PM)
Minimum temperature yesterday: 45 °F (at 6:50 AM)
Average temperature yesterday: 58 °F

Past Weeks' High & Low Weather Summary

 TemperatureHumidityPressure
High68 °F (Apr 7, 2:20 PM)100% (Apr 6, 6:20 AM)30.48 "Hg (Apr 6, 6:20 AM)
Low32 °F (Apr 12, 6:50 AM)33% (Apr 16, 5:20 PM)29.65 "Hg (Apr 8, 6:50 AM)
Average51 °F72%30.01 "Hg
* Reported Apr 6 6:20 AM — Apr 21 6:50 AM, Bad Oldesloe, Weather by CustomWeather, © 2014

Note: Actual official high and low records may vary slightly from our data, if they occured in-between our weather recording intervals... More about our weather records

Advertising

Historic Weather Conditions — Data for Previous 24 hours

 ConditionsComfort  
Time TempWeatherWind HumidityBarometerVisibility
6:50 AM
Apr 21
48 °FPartly cloudy.5 mph94%29.83 "Hg3 mi
9:50 PM
Apr 20
52 °FClear.8 mph82%29.89 "Hg10 mi
9:20 PM54 °FSunny.7 mph82%29.89 "Hg10 mi
8:50 PM55 °FSunny.9 mph77%29.89 "Hg10 mi
8:20 PM57 °FSunny.9 mph77%29.89 "Hg10 mi
7:50 PM59 °FSunny.10 mph72%29.89 "Hg10 mi
7:20 PM61 °FSunny.12 mph68%29.89 "Hg10 mi
6:50 PM63 °FPassing clouds.10 mph68%29.89 "HgN/A
6:20 PM63 °FPassing clouds.10 mph64%29.89 "HgN/A
5:50 PM63 °FPassing clouds.14 mph68%29.89 "HgN/A
5:20 PM61 °FPassing clouds.14 mph68%29.89 "HgN/A
4:50 PM64 °FPassing clouds.13 mph64%29.89 "HgN/A
4:20 PM64 °FPassing clouds.14 mph68%29.89 "HgN/A
3:50 PM64 °FSunny.15 mph64%29.92 "Hg10 mi
3:20 PM63 °FSunny.13 mph68%29.92 "Hg10 mi
2:50 PM63 °FPassing clouds.13 mph68%29.92 "HgN/A
2:20 PM63 °FSunny.15 mph68%29.92 "Hg10 mi
1:50 PM64 °FSunny.12 mph68%29.95 "Hg10 mi
1:20 PM64 °FSunny.14 mph64%29.95 "Hg10 mi
12:50 PM63 °FSunny.14 mph68%29.95 "Hg10 mi
12:20 PM63 °FSunny.13 mph68%29.95 "Hg10 mi
11:50 AM61 °FSunny.13 mph72%29.95 "Hg10 mi
11:20 AM59 °FSunny.12 mph72%29.98 "Hg10 mi
10:50 AM57 °FSunny.10 mph77%29.98 "Hg10 mi
10:20 AM55 °FSunny.10 mph77%29.98 "Hg10 mi
9:50 AM54 °FClear.9 mph82%29.98 "Hg5 mi
9:20 AM52 °FClear.9 mph88%29.98 "Hg5 mi
8:50 AM52 °FClear.9 mph82%29.98 "Hg5 mi
8:20 AM50 °FClear.8 mph88%30.01 "Hg5 mi
Weather by CustomWeather, © 2014

See weather overview